Location: Bloomsdale Volunteer Fire Department
(38.0110°N, 90.2222°W)
Time: 06:29:20
(UTC+00:00)

ARIANE 6 FM1 Upper Stage - Visible Passes

Search period start: 11 October 2024 00:00
Search period end: 21 October 2024 00:00
Orbit: 563 x 594 km, 62.0° (Epoch: 10 October)

Date Brightness Start Highest point End Pass type
(mag) Time Alt. Az. Time Alt. Az. Time Alt. Az.
17 Oct 5.0 01:05:04 10° N 01:06:11 13° NNE 01:06:11 13° NNE visible
18 Oct 4.7 01:08:34 10° N 01:10:22 18° NNE 01:10:22 18° NNE visible
19 Oct 4.3 01:12:15 10° NNW 01:14:36 25° N 01:14:36 25° N visible
20 Oct 3.8 01:16:04 10° NNW 01:18:54 36° N 01:18:54 36° N visible
20 Oct 4.8 23:42:31 10° NNE 23:44:23 12° NE 23:46:16 10° ENE visible
